| time (UTC) | temp F | wind direction | speed knots | gust knots | rain 1hr in | rain 24hr in | rain mn in | humidity % | barometer mb |
| 20260504004536 | 49 | 333 | 0.0 | 0.0 | 0.00 | 0.00 | 0.00 | 46 | 1006.2 |
| 20260504003036 | 50 | 333 | 0.0 | 0.0 | 0.00 | 0.00 | 0.00 | 44 | 1005.9 |
| 20260504001539 | 52 | 333 | 0.0 | 0.0 | 0.00 | 0.00 | 0.00 | 42 | 1005.7 |
| 20260504000038 | 54 | 333 | 0.0 | 0.0 | 0.00 | 0.00 | 0.00 | 35 | 1005.5 |
| 20260503234535 | 55 | 333 | 0.0 | 0.9 | 0.00 | 0.00 | 0.00 | 33 | 1005.2 |
| 20260503233035 | 57 | 333 | 0.0 | 2.6 | 0.00 | 0.00 | 0.00 | 31 | 1005.1 |
| 20260503231535 | 57 | 218 | 0.0 | 1.7 | 0.00 | 0.00 | 0.00 | 29 | 1005.0 |
| 20260503230034 | 57 | 303 | 0.0 | 2.6 | 0.00 | 0.00 | 0.00 | 27 | 1004.8 |
| 20260503224534 | 57 | 219 | 0.9 | 2.6 | 0.00 | 0.00 | 0.00 | 27 | 1004.7 |
| 20260503223034 | 58 | 349 | 1.7 | 7.8 | 0.00 | 0.00 | 0.00 | 27 | 1004.7 |
| 20260503221535 | 58 | 315 | 1.7 | 6.1 | 0.00 | 0.00 | 0.00 | 25 | 1004.7 |
| 20260503220035 | 58 | 323 | 0.9 | 6.1 | 0.00 | 0.00 | 0.00 | 27 | 1004.8 |
| 20260503214540 | 58 | 186 | 0.9 | 3.5 | 0.00 | 0.00 | 0.00 | 25 | 1004.8 |
| 20260503213036 | 58 | 326 | 3.5 | 8.7 | 0.00 | 0.00 | 0.00 | 28 | 1004.7 |
| 20260503211538 | 58 | 321 | 4.3 | 11.3 | 0.00 | 0.00 | 0.00 | 24 | 1004.7 |
| 20260503210033 | 58 | 311 | 3.5 | 10.4 | 0.00 | 0.00 | 0.00 | 24 | 1004.7 |
| 20260503204534 | 58 | 307 | 2.6 | 6.1 | 0.00 | 0.00 | 0.00 | 26 | 1004.7 |
| 20260503203030 | 57 | 313 | 4.3 | 10.4 | 0.00 | 0.00 | 0.00 | 25 | 1004.8 |
| 20260503201528 | 57 | 360 | 1.7 | 7.8 | 0.00 | 0.00 | 0.00 | 31 | 1004.8 |
| 20260503200034 | 57 | 331 | 1.7 | 5.2 | 0.00 | 0.00 | 0.00 | 29 | 1005.1 |
| 20260503194525 | 57 | 298 | 2.6 | 8.7 | 0.00 | 0.00 | 0.00 | 29 | 1005.1 |
| 20260503193029 | 56 | 299 | 0.9 | 7.0 | 0.00 | 0.00 | 0.00 | 29 | 1005.2 |
| 20260503191523 | 55 | 302 | 0.9 | 4.3 | 0.00 | 0.00 | 0.00 | 31 | 1005.4 |
| 20260503190022 | 55 | 341 | 1.7 | 11.3 | 0.00 | 0.00 | 0.00 | 28 | 1005.6 |
| 20260503184528 | 55 | 304 | 3.5 | 10.4 | 0.00 | 0.00 | 0.00 | 31 | 1005.6 |
| 20260503183022 | 55 | 296 | 3.5 | 7.8 | 0.00 | 0.00 | 0.00 | 30 | 1005.7 |
| 20260503181521 | 54 | 322 | 1.7 | 12.2 | 0.00 | 0.00 | 0.00 | 31 | 1005.6 |
| 20260503180038 | 55 | 355 | 0.9 | 8.7 | 0.00 | 0.00 | 0.00 | 38 | 1005.7 |
| 20260503174524 | 53 | 225 | 0.0 | 4.3 | 0.00 | 0.00 | 0.00 | 40 | 1006.1 |
| 20260503173022 | 53 | 221 | 1.7 | 8.7 | 0.00 | 0.00 | 0.00 | 36 | 1006.2 |
| 20260503171516 | 52 | 355 | 2.6 | 12.2 | 0.00 | 0.00 | 0.00 | 36 | 1006.1 |
| 20260503100116 | 43 | 317 | 1.7 | 4.3 | 0.00 | 0.00 | 0.00 | 51 | 1005.1 |
| 20260503081551 | 45 | 304 | 0.0 | 2.6 | 0.00 | 0.00 | 0.00 | 50 | 1004.7 |
| 20260503071552 | 45 | 297 | 0.0 | 1.7 | 0.00 | 0.00 | 0.00 | 49 | 1004.7 |
| 20260503054536 | 48 | 246 | 0.9 | 2.6 | 0.00 | 0.00 | 0.00 | 44 | 1005.2 |
| 20260503053035 | 48 | 216 | 0.0 | 1.7 | 0.00 | 0.00 | 0.00 | 44 | 1005.2 |
| 20260503051538 | 48 | 197 | 0.0 | 2.6 | 0.00 | 0.00 | 0.00 | 43 | 1005.5 |
| 20260503050032 | 48 | 188 | 0.0 | 5.2 | 0.00 | 0.00 | 0.00 | 43 | 1005.7 |
| 20260503044533 | 49 | 219 | 0.0 | 1.7 | 0.00 | 0.00 | 0.00 | 44 | 1005.7 |
| 20260503043029 | 49 | 219 | 0.0 | 1.7 | 0.00 | 0.00 | 0.00 | 44 | 1005.7 |
| 20260503041533 | 49 | 267 | 0.0 | 2.6 | 0.00 | 0.00 | 0.00 | 41 | 1005.8 |
| 20260503040028 | 50 | 275 | 0.0 | 2.6 | 0.00 | 0.00 | 0.00 | 40 | 1005.7 |
| 20260503034529 | 50 | 261 | 0.0 | 2.6 | 0.00 | 0.00 | 0.00 | 40 | 1005.7 |
| 20260503033035 | 50 | 328 | 0.0 | 1.7 | 0.00 | 0.00 | 0.00 | 42 | 1005.7 |
| 20260503031526 | 50 | 328 | 0.0 | 1.7 | 0.00 | 0.00 | 0.00 | 40 | 1005.6 |
| 20260503030044 | 50 | 336 | 0.0 | 1.7 | 0.00 | 0.00 | 0.00 | 41 | 1005.6 |
| 20260503024531 | 51 | 336 | 0.0 | 1.7 | 0.00 | 0.00 | 0.00 | 38 | 1005.7 |
| 20260503023024 | 51 | 336 | 0.0 | 2.6 | 0.00 | 0.00 | 0.00 | 37 | 1005.5 |
| 20260503021527 | 52 | 336 | 0.9 | 2.6 | 0.00 | 0.00 | 0.00 | 37 | 1005.7 |
| 20260503020025 | 52 | 313 | 0.9 | 2.6 | 0.00 | 0.00 | 0.00 | 37 | 1005.6 |
| 20260503014524 | 52 | 313 | 0.0 | 1.7 | 0.00 | 0.00 | 0.00 | 37 | 1005.7 |
| 20260503013025 | 52 | 5 | 0.0 | 1.7 | 0.00 | 0.00 | 0.00 | 38 | 1005.7 |
| 20260503011525 | 52 | 5 | 0.0 | 2.6 | 0.00 | 0.00 | 0.00 | 38 | 1005.7 |
| 20260503010024 | 52 | 33 | 0.0 | 1.7 | 0.00 | 0.00 | 0.00 | 38 | 1005.4 |